When you browse on this site, cookies collect data to enhance your experience and personalize the content and advertising you see.
Visit our Privacy Policy to learn more. By continuing to use the site, you agree to this use of cookies and data.
  • In Hungary
  • List of Countries
  • For 7 days
  • Water Temperature
  • Weather Map
  • News
  • Weather Widgets
  • user-avatar
    Login

    Hourly Weather Mylyatyn

    Today, 20 August, Tuesday

    Time Temperature Precipitation Wind Pressure Humidity
    00:00 +20°C° 0 mm 2 mps 744 mmHg 74%
    01:00 +20°C° 0 mm 2 mps 744 mmHg 73%
    02:00 +20°C° 0 mm 2 mps 744 mmHg 72%
    03:00 +19°C° 0 mm 2 mps 745 mmHg 71%
    04:00 +19°C° 0 mm 2 mps 745 mmHg 70%
    05:00 +19°C° 0 mm 2 mps 745 mmHg 69%
    06:00 +20°C° 0 mm 2 mps 745 mmHg 67%
    07:00 +21°C° 0 mm 2 mps 745 mmHg 65%
    08:00 +23°C° 0 mm 2 mps 746 mmHg 63%
    09:00 +25°C° 0 mm 2 mps 746 mmHg 59%
    10:00 +27°C° 0 mm 2 mps 746 mmHg 55%
    11:00 +28°C° 0 mm 2 mps 746 mmHg 51%
    12:00 +29°C° 0 mm 2 mps 746 mmHg 50%
    13:00 +30°C° 0 mm 2 mps 746 mmHg 48%
    14:00 +31°C° 0 mm 2 mps 746 mmHg 47%
    15:00 +31°C° 0 mm 2 mps 746 mmHg 49%
    16:00 +30°C° 0 mm 2 mps 746 mmHg 51%
    17:00 +30°C° 0 mm 1 mps 746 mmHg 54%
    18:00 +28°C° 0 mm 1 mps 746 mmHg 58%
    19:00 +26°C° 0 mm 1 mps 746 mmHg 62%
    20:00 +24°C° 0 mm 1 mps 746 mmHg 66%
    21:00 +24°C° 0 mm 1 mps 746 mmHg 66%
    22:00 +23°C° 0 mm 1 mps 746 mmHg 66%
    23:00 +22°C° 0 mm 1 mps 746 mmHg 66%

    Tomorrow, 21 August, Wednesday

    Time Temperature Precipitation Wind Pressure Humidity
    00:00 +21°C° 0 mm 2 mps 746 mmHg 66%
    01:00 +20°C° 0 mm 2 mps 746 mmHg 65%
    02:00 +20°C° 0 mm 2 mps 746 mmHg 65%
    03:00 +20°C° 0 mm 2 mps 746 mmHg 66%
    04:00 +19°C° 0 mm 2 mps 745 mmHg 66%
    05:00 +19°C° 0 mm 2 mps 745 mmHg 67%
    06:00 +20°C° 0 mm 2 mps 745 mmHg 65%
    07:00 +21°C° 0 mm 3 mps 746 mmHg 62%
    08:00 +24°C° 0 mm 3 mps 746 mmHg 60%
    09:00 +25°C° 0 mm 3 mps 746 mmHg 57%
    10:00 +27°C° 0 mm 3 mps 746 mmHg 53%
    11:00 +29°C° 0 mm 3 mps 746 mmHg 50%
    12:00 +30°C° 0 mm 3 mps 746 mmHg 47%
    13:00 +31°C° 0 mm 3 mps 746 mmHg 44%
    14:00 +33°C° 0 mm 3 mps 745 mmHg 40%
    15:00 +31°C° 0 mm 2 mps 745 mmHg 43%
    16:00 +31°C° 0 mm 2 mps 745 mmHg 46%
    17:00 +31°C° 0 mm 1 mps 745 mmHg 49%
    18:00 +29°C° 0 mm 1 mps 745 mmHg 54%
    19:00 +27°C° 0 mm 2 mps 745 mmHg 58%
    20:00 +25°C° 0 mm 2 mps 746 mmHg 63%
    21:00 +22°C° 0.1 mm 3 mps 746 mmHg 73%
    22:00 +21°C° 0.1 mm 4 mps 746 mmHg 82%
    23:00 +20°C° 0.1 mm 5 mps 747 mmHg 92%

    Day after tomorrow, 22 August, Thursday

    Time Temperature Precipitation Wind Pressure Humidity
    00:00 +20°C° 0.4 mm 5 mps 747 mmHg 93%
    01:00 +19°C° 0.4 mm 5 mps 747 mmHg 93%
    02:00 +17°C° 0.4 mm 5 mps 747 mmHg 93%
    03:00 +18°C° 0.3 mm 4 mps 747 mmHg 94%
    04:00 +17°C° 0.3 mm 4 mps 747 mmHg 94%
    05:00 +17°C° 0.3 mm 4 mps 747 mmHg 95%
    06:00 +17°C° 0 mm 4 mps 747 mmHg 94%
    07:00 +17°C° 0 mm 3 mps 748 mmHg 93%
    08:00 +17°C° 0 mm 3 mps 748 mmHg 92%
    09:00 +17°C° 0 mm 3 mps 748 mmHg 90%
    10:00 +18°C° 0 mm 4 mps 749 mmHg 89%
    11:00 +18°C° 0 mm 4 mps 749 mmHg 87%
    12:00 +19°C° 0 mm 4 mps 749 mmHg 82%
    13:00 +20°C° 0 mm 3 mps 749 mmHg 78%
    14:00 +21°C° 0 mm 3 mps 749 mmHg 74%
    15:00 +21°C° 0 mm 3 mps 749 mmHg 73%
    16:00 +21°C° 0 mm 3 mps 749 mmHg 72%
    17:00 +21°C° 0 mm 3 mps 749 mmHg 71%
    18:00 +20°C° 0 mm 3 mps 749 mmHg 76%
    19:00 +19°C° 0 mm 2 mps 749 mmHg 80%
    20:00 +17°C° 0 mm 2 mps 749 mmHg 84%
    21:00 +17°C° 0 mm 2 mps 749 mmHg 86%
    22:00 +16°C° 0 mm 1 mps 749 mmHg 87%
    23:00 +16°C° 0 mm 1 mps 749 mmHg 89%

    23 August, Friday

    Time Temperature Precipitation Wind Pressure Humidity
    00:00 +16°C° 0 mm 1 mps 749 mmHg 91%
    01:00 +15°C° 0 mm 2 mps 749 mmHg 92%
    02:00 +15°C° 0 mm 2 mps 749 mmHg 94%
    03:00 +15°C° 0 mm 2 mps 749 mmHg 94%
    04:00 +14°C° 0 mm 2 mps 749 mmHg 95%
    05:00 +14°C° 0 mm 2 mps 749 mmHg 95%
    06:00 +15°C° 0 mm 2 mps 750 mmHg 90%
    07:00 +16°C° 0 mm 3 mps 750 mmHg 86%
    08:00 +18°C° 0 mm 3 mps 750 mmHg 81%
    09:00 +19°C° 0 mm 3 mps 750 mmHg 73%
    10:00 +21°C° 0 mm 3 mps 750 mmHg 66%
    11:00 +24°C° 0 mm 3 mps 751 mmHg 58%
    12:00 +24°C° 0 mm 3 mps 751 mmHg 54%
    13:00 +25°C° 0 mm 3 mps 750 mmHg 51%
    14:00 +26°C° 0 mm 3 mps 750 mmHg 47%
    15:00 +25°C° 0 mm 3 mps 750 mmHg 49%
    16:00 +25°C° 0 mm 3 mps 750 mmHg 52%
    17:00 +25°C° 0 mm 3 mps 750 mmHg 54%
    18:00 +22°C° 0 mm 3 mps 750 mmHg 60%
    19:00 +20°C° 0 mm 3 mps 750 mmHg 66%
    20:00 +17°C° 0 mm 3 mps 750 mmHg 72%
    21:00 +17°C° 0 mm 2 mps 750 mmHg 74%
    22:00 +16°C° 0 mm 2 mps 750 mmHg 76%
    23:00 +15°C° 0 mm 2 mps 750 mmHg 79%

    24 August, Saturday

    Time Temperature Precipitation Wind Pressure Humidity
    00:00 +14°C° 0 mm 2 mps 750 mmHg 80%
    01:00 +14°C° 0 mm 2 mps 750 mmHg 82%
    02:00 +14°C° 0 mm 2 mps 750 mmHg 83%
    03:00 +13°C° 0 mm 2 mps 750 mmHg 84%
    04:00 +13°C° 0 mm 2 mps 750 mmHg 85%
    05:00 +12°C° 0 mm 2 mps 750 mmHg 87%
    06:00 +14°C° 0 mm 2 mps 750 mmHg 81%
    07:00 +16°C° 0 mm 2 mps 750 mmHg 76%
    08:00 +17°C° 0 mm 2 mps 751 mmHg 71%
    09:00 +19°C° 0 mm 2 mps 751 mmHg 65%
    10:00 +21°C° 0 mm 3 mps 751 mmHg 59%
    11:00 +24°C° 0 mm 3 mps 751 mmHg 52%
    12:00 +24°C° 0 mm 3 mps 750 mmHg 50%
    13:00 +25°C° 0 mm 3 mps 750 mmHg 48%
    14:00 +25°C° 0 mm 3 mps 750 mmHg 45%
    15:00 +25°C° 0 mm 3 mps 749 mmHg 48%
    16:00 +25°C° 0 mm 3 mps 749 mmHg 51%
    17:00 +25°C° 0 mm 3 mps 749 mmHg 54%
    18:00 +21°C° 0 mm 3 mps 749 mmHg 58%
    19:00 +19°C° 0 mm 3 mps 748 mmHg 63%
    20:00 +17°C° 0 mm 2 mps 748 mmHg 68%
    21:00 +17°C° 0 mm 3 mps 748 mmHg 68%
    22:00 +16°C° 0 mm 3 mps 748 mmHg 69%
    23:00 +16°C° 0 mm 3 mps 748 mmHg 69%

    25 August, Sunday

    Time Temperature Precipitation Wind Pressure Humidity
    00:00 +14°C° 0 mm 3 mps 748 mmHg 71%
    01:00 +14°C° 0 mm 3 mps 748 mmHg 73%
    02:00 +14°C° 0 mm 3 mps 748 mmHg 75%
    03:00 +13°C° 0 mm 3 mps 748 mmHg 74%
    04:00 +13°C° 0 mm 3 mps 747 mmHg 74%
    05:00 +13°C° 0 mm 3 mps 747 mmHg 74%
    06:00 +14°C° 0 mm 3 mps 747 mmHg 70%
    07:00 +17°C° 0 mm 3 mps 747 mmHg 67%
    08:00 +18°C° 0 mm 3 mps 747 mmHg 64%
    09:00 +20°C° 0 mm 3 mps 747 mmHg 60%
    10:00 +24°C° 0 mm 3 mps 747 mmHg 55%
    11:00 +26°C° 0 mm 3 mps 747 mmHg 51%
    12:00 +26°C° 0 mm 4 mps 747 mmHg 49%
    13:00 +27°C° 0 mm 4 mps 747 mmHg 46%
    14:00 +28°C° 0 mm 4 mps 746 mmHg 44%
    15:00 +27°C° 0 mm 3 mps 746 mmHg 47%
    16:00 +27°C° 0 mm 3 mps 746 mmHg 50%
    17:00 +27°C° 0 mm 2 mps 746 mmHg 54%
    18:00 +25°C° 0 mm 3 mps 745 mmHg 58%
    19:00 +22°C° 0 mm 3 mps 745 mmHg 62%
    20:00 +19°C° 0 mm 3 mps 745 mmHg 66%
    21:00 +19°C° 0 mm 3 mps 745 mmHg 66%
    22:00 +18°C° 0 mm 3 mps 745 mmHg 66%
    23:00 +17°C° 0 mm 3 mps 745 mmHg 66%
    Show more